• In Russia
  • List of Countries
  • For 7 days
  • Water Temperature
  • Satellite Maps
  • Weather Map
  • Weather Widgets
  • user-avatar
    Login

    Hourly Weather Criuleni

    Today, 21 June, Thursday

    Time Temperature Precipitation Wind Pressure Humidity
    00:00 +24°C° 0 mm 2 mps 759 mmHg 78%
    01:00 +23°C° 0 mm 2 mps 759 mmHg 79%
    02:00 +23°C° 0 mm 1 mps 759 mmHg 79%
    03:00 +22°C° 0 mm 1 mps 759 mmHg 80%
    04:00 +22°C° 0 mm 1 mps 759 mmHg 81%
    05:00 +22°C° 0 mm 1 mps 759 mmHg 82%
    06:00 +24°C° 0 mm 1 mps 759 mmHg 76%
    07:00 +25°C° 0 mm 1 mps 759 mmHg 70%
    08:00 +27°C° 0 mm 2 mps 759 mmHg 64%
    09:00 +28°C° 0 mm 1 mps 758 mmHg 59%
    10:00 +29°C° 0 mm 1 mps 758 mmHg 54%
    11:00 +30°C° 0 mm 1 mps 758 mmHg 49%
    12:00 +31°C° 0 mm 1 mps 757 mmHg 48%
    13:00 +31°C° 0 mm 1 mps 757 mmHg 47%
    14:00 +31°C° 0 mm 1 mps 756 mmHg 46%
    15:00 +31°C° 0 mm 1 mps 756 mmHg 47%
    16:00 +31°C° 0 mm 1 mps 756 mmHg 48%
    17:00 +31°C° 0 mm 1 mps 755 mmHg 49%
    18:00 +30°C° 0 mm 1 mps 755 mmHg 52%
    19:00 +28°C° 0 mm 1 mps 755 mmHg 56%
    20:00 +27°C° 0 mm 1 mps 755 mmHg 59%
    21:00 +27°C° 0 mm 2 mps 754 mmHg 61%
    22:00 +26°C° 0 mm 2 mps 754 mmHg 62%
    23:00 +25°C° 0 mm 2 mps 754 mmHg 64%

    Tomorrow, 22 June, Friday

    Time Temperature Precipitation Wind Pressure Humidity
    00:00 +25°C° 0 mm 2 mps 754 mmHg 66%
    01:00 +24°C° 0 mm 2 mps 754 mmHg 68%
    02:00 +24°C° 0 mm 2 mps 753 mmHg 70%
    03:00 +24°C° 0 mm 2 mps 753 mmHg 72%
    04:00 +23°C° 0 mm 2 mps 753 mmHg 74%
    05:00 +23°C° 0 mm 2 mps 753 mmHg 76%
    06:00 +25°C° 0.1 mm 2 mps 753 mmHg 71%
    07:00 +27°C° 0.1 mm 2 mps 753 mmHg 66%
    08:00 +28°C° 0.1 mm 3 mps 753 mmHg 61%
    09:00 +29°C° 0.5 mm 3 mps 752 mmHg 57%
    10:00 +30°C° 0.5 mm 3 mps 752 mmHg 53%
    11:00 +33°C° 0.5 mm 4 mps 752 mmHg 49%
    12:00 +32°C° 0.2 mm 4 mps 752 mmHg 50%
    13:00 +31°C° 0.2 mm 3 mps 752 mmHg 51%
    14:00 +31°C° 0.2 mm 3 mps 752 mmHg 53%
    15:00 +30°C° 0.9 mm 3 mps 752 mmHg 58%
    16:00 +29°C° 0.9 mm 4 mps 752 mmHg 64%
    17:00 +27°C° 0.9 mm 4 mps 752 mmHg 70%
    18:00 +26°C° 1.7 mm 4 mps 752 mmHg 75%
    19:00 +25°C° 1.7 mm 4 mps 752 mmHg 80%
    20:00 +23°C° 1.7 mm 4 mps 752 mmHg 84%
    21:00 +22°C° 3.7 mm 5 mps 752 mmHg 87%
    22:00 +21°C° 3.7 mm 5 mps 752 mmHg 89%
    23:00 +20°C° 3.7 mm 6 mps 752 mmHg 91%

    Day after tomorrow, 23 June, Saturday

    Time Temperature Precipitation Wind Pressure Humidity
    00:00 +19°C° 0.6 mm 6 mps 752 mmHg 90%
    01:00 +19°C° 0.6 mm 6 mps 752 mmHg 89%
    02:00 +17°C° 0.6 mm 7 mps 752 mmHg 88%
    03:00 +16°C° 0 mm 7 mps 752 mmHg 87%
    04:00 +15°C° 0 mm 8 mps 753 mmHg 86%
    05:00 +13°C° 0 mm 8 mps 753 mmHg 85%
    06:00 +13°C° 0.1 mm 8 mps 753 mmHg 84%
    07:00 +13°C° 0.1 mm 8 mps 754 mmHg 82%
    08:00 +13°C° 0.1 mm 8 mps 754 mmHg 81%
    09:00 +15°C° 0 mm 8 mps 754 mmHg 75%
    10:00 +16°C° 0 mm 8 mps 755 mmHg 70%
    11:00 +17°C° 0 mm 8 mps 755 mmHg 65%
    12:00 +17°C° 0 mm 7 mps 755 mmHg 63%
    13:00 +18°C° 0 mm 7 mps 755 mmHg 61%
    14:00 +19°C° 0 mm 6 mps 755 mmHg 59%
    15:00 +20°C° 0 mm 6 mps 755 mmHg 58%
    16:00 +20°C° 0 mm 6 mps 755 mmHg 57%
    17:00 +21°C° 0 mm 5 mps 755 mmHg 56%
    18:00 +19°C° 0 mm 4 mps 755 mmHg 61%
    19:00 +18°C° 0 mm 4 mps 756 mmHg 67%
    20:00 +17°C° 0 mm 3 mps 756 mmHg 73%
    21:00 +16°C° 0 mm 2 mps 756 mmHg 75%
    22:00 +15°C° 0 mm 2 mps 756 mmHg 77%
    23:00 +15°C° 0 mm 2 mps 757 mmHg 79%

    24 June, Sunday

    Time Temperature Precipitation Wind Pressure Humidity
    00:00 +14°C° 0 mm 2 mps 757 mmHg 80%
    01:00 +14°C° 0 mm 2 mps 757 mmHg 81%
    02:00 +13°C° 0 mm 2 mps 757 mmHg 82%
    03:00 +13°C° 0 mm 2 mps 757 mmHg 82%
    04:00 +13°C° 0 mm 2 mps 758 mmHg 83%
    05:00 +13°C° 0 mm 2 mps 758 mmHg 84%
    06:00 +15°C° 0 mm 2 mps 758 mmHg 77%
    07:00 +17°C° 0 mm 2 mps 758 mmHg 71%
    08:00 +18°C° 0 mm 2 mps 759 mmHg 64%
    09:00 +19°C° 0 mm 2 mps 759 mmHg 59%
    10:00 +21°C° 0 mm 2 mps 759 mmHg 54%
    11:00 +23°C° 0 mm 2 mps 759 mmHg 49%
    12:00 +23°C° 0 mm 2 mps 758 mmHg 48%
    13:00 +24°C° 0 mm 2 mps 758 mmHg 46%
    14:00 +24°C° 0 mm 2 mps 758 mmHg 45%
    15:00 +24°C° 0 mm 1 mps 758 mmHg 45%
    16:00 +24°C° 0 mm 1 mps 758 mmHg 45%
    17:00 +24°C° 0 mm 1 mps 758 mmHg 45%
    18:00 +23°C° 0 mm 1 mps 758 mmHg 49%
    19:00 +22°C° 0 mm 1 mps 759 mmHg 53%
    20:00 +20°C° 0 mm 1 mps 759 mmHg 58%
    21:00 +20°C° 0 mm 1 mps 759 mmHg 59%
    22:00 +19°C° 0 mm 1 mps 759 mmHg 61%
    23:00 +18°C° 0 mm 1 mps 759 mmHg 62%

    25 June, Monday

    Time Temperature Precipitation Wind Pressure Humidity
    00:00 +18°C° 0.1 mm 1 mps 759 mmHg 64%
    01:00 +16°C° 0.1 mm 1 mps 759 mmHg 67%
    02:00 +15°C° 0.1 mm 0 mps 759 mmHg 69%
    03:00 +15°C° 0.1 mm 0 mps 760 mmHg 71%
    04:00 +15°C° 0.1 mm 0 mps 760 mmHg 72%
    05:00 +15°C° 0.1 mm 0 mps 760 mmHg 74%
    06:00 +19°C° 0 mm 1 mps 760 mmHg 69%
    07:00 +20°C° 0 mm 1 mps 760 mmHg 65%
    08:00 +21°C° 0 mm 2 mps 760 mmHg 61%
    09:00 +23°C° 0.1 mm 2 mps 760 mmHg 56%
    10:00 +24°C° 0.1 mm 2 mps 760 mmHg 52%
    11:00 +25°C° 0.1 mm 3 mps 760 mmHg 47%
    12:00 +26°C° 0 mm 2 mps 760 mmHg 46%
    13:00 +26°C° 0 mm 2 mps 759 mmHg 44%
    14:00 +27°C° 0 mm 2 mps 759 mmHg 43%
    15:00 +27°C° 0 mm 2 mps 759 mmHg 44%
    16:00 +27°C° 0 mm 2 mps 759 mmHg 44%
    17:00 +27°C° 0 mm 2 mps 759 mmHg 45%
    18:00 +25°C° 0 mm 2 mps 759 mmHg 49%
    19:00 +24°C° 0 mm 2 mps 759 mmHg 53%
    20:00 +21°C° 0 mm 2 mps 759 mmHg 58%
    21:00 +20°C° 0 mm 2 mps 759 mmHg 60%
    22:00 +20°C° 0 mm 2 mps 759 mmHg 63%
    23:00 +19°C° 0 mm 2 mps 759 mmHg 65%

    26 June, Tuesday

    Time Temperature Precipitation Wind Pressure Humidity
    00:00 +18°C° 0 mm 2 mps 759 mmHg 68%
    01:00 +18°C° 0 mm 2 mps 759 mmHg 70%
    02:00 +17°C° 0 mm 3 mps 759 mmHg 73%
    03:00 +17°C° 0 mm 3 mps 759 mmHg 74%
    04:00 +17°C° 0 mm 3 mps 759 mmHg 76%
    05:00 +17°C° 0 mm 3 mps 759 mmHg 77%
    06:00 +19°C° 0 mm 3 mps 759 mmHg 71%
    07:00 +21°C° 0 mm 4 mps 759 mmHg 65%
    08:00 +23°C° 0 mm 4 mps 759 mmHg 59%
    09:00 +25°C° 0 mm 4 mps 759 mmHg 54%
    10:00 +26°C° 0 mm 4 mps 759 mmHg 49%
    11:00 +28°C° 0 mm 5 mps 758 mmHg 44%
    12:00 +28°C° 0 mm 5 mps 758 mmHg 43%
    13:00 +29°C° 0 mm 5 mps 758 mmHg 42%
    14:00 +29°C° 0 mm 4 mps 757 mmHg 40%
    15:00 +29°C° 0 mm 4 mps 757 mmHg 41%
    16:00 +29°C° 0 mm 4 mps 757 mmHg 43%
    17:00 +28°C° 0 mm 4 mps 757 mmHg 44%
    18:00 +27°C° 0 mm 4 mps 756 mmHg 50%
    19:00 +25°C° 0 mm 4 mps 756 mmHg 56%
    20:00 +23°C° 0 mm 4 mps 756 mmHg 62%
    21:00 +22°C° 0 mm 4 mps 756 mmHg 64%
    22:00 +22°C° 0 mm 4 mps 756 mmHg 65%
    23:00 +21°C° 0 mm 4 mps 756 mmHg 66%
    Show more